Redding, CA

4:43 AM PDT on April 23, 2017 (GMT -0700)
Redding Municipal

Weather History for KRDD - June, 2013

Change the Weather History Date:

Wednesday, June 26, 2013

  Actual Average Record
Temperature  
Mean Temperature 75 °F -  
Max Temperature 85 °F 94 °F 113 °F (2006)
Min Temperature 65 °F 64 °F 51 °F (1998)
Degree Days  
Heating Degree Days 0    
Cooling Degree Days 10    
Growing Degree Days 24 (Base 50)    
Moisture  
Dew Point 61 °F    
Average Humidity 65    
Maximum Humidity 87    
Minimum Humidity 43    
Precipitation  
Precipitation 0.00 in 0.01 in 0.70 in (2001)
Month to date precipitation 1.58 0.67  
Year to date precipitation 9.30 20.84  
Since 1 July precipitation 28.46  
Sea Level Pressure  
Sea Level Pressure 29.95 in    
Wind  
Wind Speed 6 mph (SW)    
Max Wind Speed 15 mph    
Max Gust Speed 21 mph    
Visibility 10 miles    
Events      
T = Trace of Precipitation, MM = Missing Value Source: NWS Daily Summary

Daily Weather History Graph

Daily Weather History Graph

Search for Another Location

Airport or City:

Trip Planner

Search our weather history database for the weather conditions in past years. The results will help you decide how hot, cold, wet, or windy it might be!

Date:

Astronomy

Jun. 26, 2013 Rise Set
Actual Time 5:40 AM PDT 8:43 PM PDT
Civil Twilight 5:07 AM PDT 9:16 PM PDT
Nautical Twilight 4:24 AM PDT 9:59 PM PDT
Astronomical Twilight 3:35 AM PDT 10:48 PM PDT
Moon 11:09 PM PDT (6/26) 9:39 AM PDT (6/26)
Length of Visible Light 16h 09m
Length of Day
15h 03m
Waning Gibbous, 84% of the Moon is Illuminated
Jun 26
Waning Gibbous
Jun 29
Last Quarter
Jul 8
New
Jul 15
First Quarter
Jul 22
Full

Hourly Weather History & Observations

Time (PDT) Temp. Heat Index Dew Point Humidity Pressure Visibility Wind Dir Wind Speed Gust Speed Precip Events Conditions
12:53 AM 68.0 °F - 62.1 °F 81% 29.91 in 10.0 mi SSW 9.2 mph - N/A   Scattered Clouds
1:53 AM 68.0 °F - 62.1 °F 81% 29.91 in 10.0 mi SW 6.9 mph - N/A   Overcast
2:07 AM 68.0 °F - 62.6 °F 83% 29.92 in 10.0 mi SSW 9.2 mph - N/A   Overcast
2:53 AM 66.9 °F - 62.1 °F 84% 29.91 in 10.0 mi WSW 5.8 mph - N/A   Overcast
3:21 AM 66.2 °F - 62.6 °F 88% 29.93 in 10.0 mi SW 4.6 mph - N/A   Overcast
3:51 AM 66.2 °F - 62.6 °F 88% 29.93 in 10.0 mi SW 4.6 mph - N/A   Mostly Cloudy
3:53 AM 66.0 °F - 62.1 °F 87% 29.92 in 10.0 mi WSW 4.6 mph - N/A   Mostly Cloudy
4:06 AM 66.2 °F - 60.8 °F 83% 29.94 in 10.0 mi Calm Calm - N/A   Mostly Cloudy
4:53 AM 64.9 °F - 61.0 °F 87% 29.93 in 10.0 mi Calm Calm - N/A   Partly Cloudy
5:24 AM 64.4 °F - 60.8 °F 88% 29.95 in 10.0 mi SW 3.5 mph - N/A   Overcast
5:53 AM 66.0 °F - 61.0 °F 84% 29.94 in 10.0 mi SW 5.8 mph - N/A   Overcast
6:53 AM 66.0 °F - 62.1 °F 87% 29.96 in 10.0 mi Calm Calm - N/A   Overcast
7:53 AM 68.0 °F - 62.1 °F 81% 29.97 in 10.0 mi WSW 4.6 mph - N/A   Overcast
8:53 AM 69.1 °F - 62.1 °F 78% 29.98 in 10.0 mi SSW 6.9 mph - N/A   Overcast
9:53 AM 71.1 °F - 62.1 °F 73% 29.98 in 10.0 mi West 4.6 mph - N/A   Overcast
10:29 AM 73.4 °F - 62.6 °F 69% 29.99 in 10.0 mi West 3.5 mph - N/A   Overcast
10:53 AM 75.0 °F - 61.0 °F 62% 29.98 in 10.0 mi South 11.5 mph - N/A   Overcast
11:53 AM 75.0 °F - 63.0 °F 66% 29.99 in 10.0 mi Variable 4.6 mph - N/A   Mostly Cloudy
12:53 PM 77.0 °F - 62.1 °F 60% 29.99 in 10.0 mi West 3.5 mph - N/A   Overcast
1:53 PM 81.0 °F 81.3 °F 59.0 °F 47% 29.97 in 10.0 mi SSE 8.1 mph - N/A   Mostly Cloudy
2:53 PM 82.0 °F 82.1 °F 59.0 °F 45% 29.96 in 10.0 mi South 6.9 mph - N/A   Overcast
3:53 PM 82.9 °F 82.8 °F 59.0 °F 44% 29.95 in 10.0 mi SSE 6.9 mph - N/A   Mostly Cloudy
4:53 PM 84.0 °F 83.8 °F 59.0 °F 43% 29.94 in 10.0 mi South 8.1 mph - N/A   Mostly Cloudy
5:53 PM 86.0 °F 84.9 °F 57.0 °F 37% 29.93 in 10.0 mi South 11.5 mph - N/A   Clear
6:53 PM 84.9 °F 83.9 °F 57.0 °F 38% 29.93 in 10.0 mi South 10.4 mph - N/A   Clear
7:53 PM 82.9 °F 82.8 °F 59.0 °F 44% 29.93 in 10.0 mi South 6.9 mph - N/A   Clear
8:53 PM 78.1 °F - 61.0 °F 56% 29.94 in 10.0 mi SW 3.5 mph - N/A   Clear
9:53 PM 73.9 °F - 63.0 °F 68% 29.96 in 10.0 mi Calm Calm - N/A   Clear
10:53 PM 73.0 °F - 64.0 °F 73% 29.98 in 10.0 mi NNW 5.8 mph - N/A   Clear
11:53 PM 71.1 °F - 64.0 °F 78% 29.99 in 10.0 mi NNW 3.5 mph - N/A   Clear